Zurück zum Katalog

STARLINK-3265

AktivKommunikationVLEO
NORAD 50180·PAYLOAD·🇺🇸 United States

Gestartet Dec 18, 2021 von Vandenberg Space Force Base

Loading…

Nächste Überflüge (nächste 24 Stunden)

TLE

AktuellSource: CelesTrak SupGP

Epoche: Sep 14, 2026, 20:34 UTC

1 50180C 21125AA  26257.85743056 -.00018749  00000+0 -60304-3 0  2578
2 50180  53.1576 108.0410 0001377  84.1235 286.4080 15.31703747    15

Verfolge STARLINK-3265 in Echtzeit mit AllMySat

Download on the App Store